Temp
-9 -9 -10 -10 -11 -13 -13 -12 -12 -12 -12 -12 -12 -12 -12 -12 -12 -12 -12 -11 -11 -11 -11 -11 -11 -12 -12 -12 -12 -12 -12 -12 -12 -12 -12 -12 -12 -12 -12 -12 -12 -12 -12
-10 -10 -10 -10 -11 -11 -11 -12 -11 -11 -11 -12 -12 -11 -11 -11 -11 -11 -11 -11 -11 -11 -11 -11 -11 -11 -11 -11 -11 -11 -11 -11 -11 -12 -12 -12 -12 -12 -12 -12 -12 -12 -12
-10 -10 -10 -10 -10 -11 -11 -11 -11 -11 -11 -11 -11 -11 -11 -11 -11 -11 -11 -11 -11 -11 -11 -11 -11 -11 -11 -11 -11 -11 -11 -11 -11 -12 -12 -12 -12 -12 -12 -12 -12 -12 -13
-10 -10 -10 -10 -10 -11 -11 -11 -11 -11 -11 -11 -11 -11 -11 -11 -11 -11 -11 -11 -11 -11 -11 -11 -11 -11 -11 -11 -11 -11 -11 -11 -12 -12 -12 -12 -12 -12 -12 -12 -12 -12 -12
-10 -10 -10 -10 -11 -11 -11 -11 -11 -11 -11 -11 -11 -11 -11 -11 -11 -11 -11 -11 -11 -11 -11 -11 -11 -11 -11 -11 -11 -11 -11 -12 -12 -12 -12 -12 -12 -13 -13 -13 -12 -12 -13
-10 -10 -11 -11 -11 -11 -11 -11 -11 -11 -11 -11 -11 -11 -11 -11 -11 -11 -11 -11 -11 -11 -11 -11 -11 -11 -11 -12 -12 -12 -12 -12 -12 -12 -12 -12 -13 -13 -13 -13 -13 -13 -13
-10 -10 -10 -10 -10 -10 -10 -10 -11 -11 -11 -11 -11 -11 -11 -11 -11 -11 -11 -11 -11 -11 -11 -11 -11 -11 -11 -12 -12 -12 -12 -12 -12 -12 -12 -13 -13 -13 -13 -13 -13 -13 -13
-10 -10 -10 -10 -10 -10 -10 -10 -11 -11 -11 -11 -11 -11 -11 -11 -11 -11 -11 -11 -11 -11 -11 -11 -12 -12 -12 -12 -12 -12 -12 -12 -13 -13 -13 -13 -13 -13 -13 -13 -13 -13 -13
-11 -11 -11 -10 -10 -10 -10 -11 -11 -11 -11 -11 -11 -11 -11 -11 -12 -12 -12 -12 -12 -12 -12 -12 -12 -13 -13 -13 -13 -13 -13 -13 -13 -13 -13 -13 -13 -14 -14 -14 -13 -13 -13
-12 -12 -11 -11 -11 -11 -11 -11 -11 -11 -11 -11 -11 -11 -11 -12 -12 -12 -12 -12 -12 -12 -12 -13 -13 -13 -13 -13 -13 -13 -13 -13 -13 -13 -13 -13 -13 -14 -14 -14 -14 -14 -13
-12 -12 -12 -12 -11 -11 -11 -11 -12 -12 -11 -11 -11 -12 -12 -12 -12 -12 -13 -13 -13 -13 -13 -13 -13 -13 -14 -14 -14 -14 -14 -14 -14 -14 -14 -13 -14 -14 -14 -14 -14 -14 -14
-13 -13 -13 -12 -12 -12 -12 -12 -12 -11 -12 -12 -12 -12 -12 -12 -12 -12 -13 -13 -13 -13 -13 -13 -13 -13 -14 -14 -14 -14 -14 -14 -14 -14 -14 -14 -14 -14 -14 -14 -14 -15 -15
-13 -13 -13 -13 -12 -12 -12 -12 -12 -12 -12 -13 -13 -13 -13 -13 -13 -13 -13 -13 -14 -14 -14 -14 -14 -14 -14 -14 -14 -14 -15 -15 -15 -15 -15 -15 -15 -15 -15 -15 -15 -15 -15
-13 -13 -13 -13 -12 -12 -12 -12 -13 -13 -13 -13 -13 -13 -13 -13 -14 -14 -14 -14 -14 -14 -15 -15 -15 -15 -15 -15 -15 -15 -15 -15 -15 -16 -16 -16 -16 -16 -16 -16 -16 -16 -16
-13 -13 -13 -13 -13 -13 -13 -13 -13 -13 -14 -14 -14 -14 -14 -14 -14 -15 -14 -14 -14 -14 -14 -16 -16 -16 -15 -15 -15 -15 -16 -16 -16 -16 -17 -17 -17 -17 -17 -16 -16 -16 -17
-13 -13 -13 -13 -13 -13 -13 -13 -14 -14 -14 -14 -14 -14 -15 -15 -15 -15 -15 -15 -15 -15 -14 -15 -16 -16 -16 -16 -16 -16 -16 -17 -17 -17 -17 -17 -17 -17 -17 -17 -17 -17 -17
-14 -14 -13 -14 -14 -14 -14 -14 -14 -15 -15 -15 -15 -15 -16 -16 -16 -16 -16 -16 -16 -16 -15 -15 -16 -17 -17 -17 -17 -16 -17 -17 -17 -17 -17 -18 -18 -18 -18 -18 -19 -18 -18
-14 -14 -14 -14 -14 -15 -15 -15 -15 -15 -15 -16 -16 -16 -16 -17 -16 -16 -16 -17 -16 -17 -16 -16 -16 -17 -17 -17 -17 -17 -17 -17 -18 -18 -18 -19 -19 -20 -20 -20 -20 -20 -20
-14 -14 -15 -15 -15 -15 -16 -15 -16 -16 -16 -16 -16 -17 -17 -17 -17 -17 -17 -17 -17 -17 -17 -17 -17 -17 -18 -18 -18 -18 -18 -18 -18 -19 -19 -20 -21 -21 -21 -21 -21 -21 -21
-15 -15 -15 -16 -16 -16 -16 -17 -17 -17 -17 -17 -17 -17 -17 -17 -17 -17 -17 -17 -17 -17 -18 -18 -17 -18 -18 -18 -18 -19 -19 -19 -19 -20 -21 -21 -22 -22 -22 -22 -21 -21 -21
-16 -16 -16 -16 -17 -17 -17 -17 -17 -18 -18 -18 -18 -18 -18 -18 -18 -18 -18 -18 -18 -18 -18 -18 -18 -18 -18 -19 -19 -19 -19 -20 -21 -21 -22 -22 -23 -23 -22 -22 -22 -22 -23
-17 -17 -17 -17 -17 -18 -18 -18 -18 -18 -18 -18 -18 -19 -19 -19 -19 -19 -19 -19 -19 -19 -18 -19 -18 -18 -19 -19 -19 -21 -22 -22 -23 -23 -23 -23 -23 -23 -23 -23 -23 -23 -24
-17 -18 -18 -18 -18 -18 -19 -19 -19 -19 -19 -19 -19 -19 -19 -19 -20 -19 -19 -19 -19 -19 -19 -19 -19 -19 -19 -20 -21 -22 -24 -24 -24 -24 -24 -24 -23 -23 -23 -24 -24 -24 -24
-18 -18 -18 -18 -19 -19 -20 -20 -20 -20 -20 -19 -19 -20 -20 -20 -20 -20 -19 -19 -19 -19 -19 -19 -19 -20 -21 -23 -23 -25 -25 -25 -25 -25 -24 -24 -24 -24 -24 -24 -25 -25 -25
-18 -18 -19 -19 -19 -20 -21 -21 -21 -21 -21 -21 -21 -21 -20 -20 -20 -20 -19 -19 -19 -19 -20 -21 -22 -23 -24 -25 -26 -26 -26 -26 -25 -25 -25 -25 -25 -25 -25 -25 -25 -25 -25
-19 -19 -20 -20 -20 -21 -21 -22 -22 -21 -21 -21 -20 -20 -20 -20 -20 -20 -20 -21 -20 -21 -23 -24 -25 -26 -26 -27 -27 -27 -27 -26 -26 -26 -26 -26 -26 -26 -26 -26 -25 -25 -25
Height
5820 5814 5808 5802 5798 5797 5797 5796 5796 5795 5794 5793 5792 5791 5790 5789 5788 5787 5786 5785 5784 5783 5782 5781 5780 5779 5779 5778 5777 5776 5776 5775 5774 5773 5773 5772 5771 5771 5771 5771 5770 5770 5770
5818 5813 5809 5804 5800 5797 5795 5795 5794 5793 5791 5791 5789 5789 5787 5787 5786 5784 5783 5782 5781 5780 5779 5777 5777 5776 5775 5774 5773 5772 5771 5770 5769 5769 5768 5767 5767 5766 5765 5765 5764 5763 5763
5816 5812 5808 5805 5801 5798 5795 5793 5792 5791 5789 5788 5786 5785 5784 5783 5782 5781 5779 5778 5776 5775 5774 5773 5772 5771 5770 5769 5768 5767 5766 5765 5764 5763 5763 5762 5761 5760 5759 5758 5757 5756 5755
5813 5810 5807 5804 5800 5797 5794 5791 5789 5788 5786 5784 5783 5782 5780 5779 5777 5776 5774 5773 5772 5770 5769 5767 5766 5765 5764 5763 5762 5761 5760 5759 5757 5757 5756 5755 5754 5753 5753 5751 5750 5748 5747
5809 5806 5803 5801 5797 5795 5792 5789 5786 5784 5783 5781 5779 5777 5775 5773 5772 5770 5768 5766 5765 5764 5763 5761 5760 5758 5757 5755 5754 5753 5752 5751 5750 5748 5748 5747 5746 5745 5743 5742 5740 5740 5739
5803 5800 5798 5796 5793 5791 5788 5785 5782 5779 5777 5775 5773 5771 5769 5767 5765 5763 5761 5760 5758 5756 5755 5753 5752 5750 5749 5747 5746 5744 5743 5742 5740 5739 5739 5738 5737 5735 5733 5732 5731 5730 5729
5796 5794 5792 5789 5787 5785 5782 5780 5777 5774 5771 5768 5765 5764 5761 5759 5757 5755 5753 5751 5749 5748 5746 5745 5743 5742 5740 5738 5736 5735 5733 5732 5731 5730 5728 5728 5726 5724 5723 5721 5720 5719 5718
5788 5786 5784 5782 5780 5777 5775 5772 5769 5767 5764 5761 5759 5756 5755 5752 5750 5747 5744 5742 5740 5738 5736 5734 5732 5730 5728 5727 5725 5723 5721 5720 5719 5717 5716 5715 5715 5712 5710 5709 5708 5706 5707
5778 5777 5775 5773 5771 5769 5767 5765 5762 5759 5757 5754 5750 5748 5745 5743 5740 5738 5735 5732 5730 5728 5725 5723 5721 5719 5717 5714 5712 5710 5708 5707 5706 5704 5703 5702 5701 5699 5697 5696 5694 5693 5693
5770 5768 5766 5764 5763 5761 5759 5756 5754 5751 5748 5745 5742 5738 5735 5732 5730 5728 5723 5720 5718 5715 5713 5711 5708 5706 5704 5701 5699 5697 5696 5694 5692 5690 5689 5687 5686 5684 5681 5680 5679 5678 5677
5762 5760 5757 5755 5753 5752 5750 5747 5744 5741 5738 5735 5731 5728 5724 5721 5717 5715 5713 5709 5706 5703 5700 5698 5695 5693 5690 5688 5686 5684 5682 5680 5678 5675 5673 5671 5669 5666 5664 5663 5661 5660 5660
5753 5751 5749 5747 5744 5743 5740 5737 5734 5731 5727 5724 5720 5717 5713 5710 5707 5703 5701 5697 5694 5690 5686 5683 5681 5678 5676 5673 5671 5668 5665 5663 5660 5657 5654 5652 5650 5648 5646 5644 5643 5642 5642
5745 5743 5740 5738 5735 5733 5730 5727 5723 5719 5716 5712 5708 5705 5701 5697 5693 5690 5686 5683 5680 5676 5672 5668 5665 5662 5659 5656 5654 5651 5648 5645 5643 5640 5637 5636 5634 5632 5630 5629 5628 5627 5627
5736 5733 5731 5728 5724 5721 5718 5715 5711 5707 5703 5699 5695 5692 5688 5683 5679 5675 5671 5667 5665 5662 5659 5653 5651 5649 5645 5642 5639 5636 5633 5630 5627 5624 5622 5620 5617 5615 5614 5613 5612 5611 5611
5725 5723 5719 5716 5712 5709 5706 5703 5698 5694 5690 5685 5681 5677 5672 5667 5663 5659 5656 5652 5649 5648 5645 5641 5636 5632 5630 5627 5623 5620 5616 5613 5610 5606 5603 5601 5599 5597 5595 5594 5593 5592 5591
5714 5711 5707 5704 5701 5697 5693 5689 5685 5681 5676 5671 5667 5662 5657 5652 5648 5645 5642 5638 5635 5631 5629 5624 5619 5615 5613 5609 5606 5602 5598 5594 5591 5588 5585 5582 5580 5578 5576 5575 5573 5572 5571
5703 5700 5696 5692 5688 5683 5679 5675 5670 5666 5661 5656 5651 5647 5643 5638 5635 5631 5626 5622 5617 5613 5611 5608 5601 5595 5594 5590 5587 5585 5580 5575 5571 5567 5564 5561 5557 5555 5553 5551 5550 5550 5550
5691 5687 5683 5678 5674 5669 5664 5659 5655 5650 5645 5641 5636 5632 5628 5622 5619 5614 5609 5604 5600 5595 5592 5591 5585 5580 5574 5569 5566 5563 5560 5555 5550 5546 5541 5538 5534 5531 5529 5528 5528 5528 5528
5677 5672 5668 5663 5658 5653 5648 5643 5639 5634 5630 5625 5621 5616 5611 5605 5601 5595 5590 5586 5581 5577 5572 5569 5568 5560 5555 5548 5543 5539 5533 5529 5527 5523 5518 5514 5512 5511 5509 5509 5509 5509 5508
5661 5657 5652 5647 5642 5637 5632 5627 5622 5618 5614 5610 5604 5599 5593 5587 5582 5576 5570 5565 5561 5556 5551 5546 5545 5539 5531 5525 5518 5513 5506 5503 5501 5498 5495 5493 5493 5492 5492 5491 5491 5490 5490
5645 5640 5636 5630 5625 5619 5614 5610 5606 5602 5597 5592 5586 5580 5574 5567 5560 5554 5549 5545 5538 5533 5528 5522 5519 5513 5507 5499 5492 5483 5480 5476 5477 5475 5475 5474 5475 5475 5475 5474 5473 5473 5472
5628 5623 5617 5612 5608 5602 5596 5591 5587 5583 5579 5573 5568 5561 5555 5548 5541 5534 5528 5523 5516 5508 5502 5493 5489 5484 5478 5469 5458 5455 5452 5454 5455 5456 5454 5456 5457 5458 5459 5458 5457 5456 5456
5611 5605 5600 5594 5590 5584 5578 5573 5568 5564 5559 5553 5547 5540 5533 5525 5517 5510 5505 5498 5491 5481 5470 5462 5456 5451 5443 5435 5429 5428 5430 5432 5435 5437 5437 5440 5440 5441 5442 5443 5442 5441 5441
5594 5588 5582 5576 5572 5566 5559 5553 5549 5545 5540 5533 5525 5517 5510 5504 5492 5482 5476 5471 5464 5453 5439 5425 5418 5417 5407 5404 5402 5404 5408 5413 5417 5419 5421 5425 5423 5425 5426 5428 5428 5428 5427
5577 5571 5565 5559 5553 5548 5540 5533 5528 5523 5518 5510 5503 5494 5484 5477 5467 5454 5440 5433 5430 5421 5403 5393 5386 5383 5380 5378 5380 5385 5390 5396 5401 5404 5406 5410 5411 5412 5412 5413 5414 5414 5414
5561 5554 5549 5541 5534 5528 5519 5511 5504 5499 5495 5488 5479 5468 5456 5444 5435 5422 5406 5395 5391 5385 5373 5366 5361 5358 5358 5360 5363 5368 5374 5381 5386 5390 5393 5397 5399 5400 5400 5400 5401 5401 5402
Wind_Speed
32 30 26 19 12 8 11 15 8 7 7 7 7 9 9 11 13 14 14 13 12 11 12 12 12 12 11 11 11 11 12 13 15 15 17 19 20 22 23 25 25 26 28
28 26 22 16 12 9 7 5 6 6 7 8 10 12 13 15 17 18 16 13 13 13 14 14 14 13 13 14 15 15 15 16 17 18 20 21 23 24 25 26 27 28 29
25 23 20 16 12 8 8 8 9 10 10 12 14 16 18 19 20 19 18 17 17 18 18 19 19 20 20 20 21 22 22 23 23 23 23 23 25 27 28 29 31 31 31
26 22 19 17 15 13 13 14 14 15 16 17 19 20 21 22 22 21 22 22 23 23 24 25 25 26 26 26 25 26 26 28 29 29 28 30 31 32 33 34 35 35 36
26 24 21 20 19 19 20 20 21 22 22 23 24 25 27 28 28 27 28 28 29 29 29 30 31 31 32 31 32 31 30 31 31 32 32 33 32 33 36 40 40 39 39
28 25 24 23 23 24 25 25 25 27 29 29 29 29 30 30 31 32 33 33 34 35 35 35 36 37 37 37 38 39 38 37 36 36 36 38 37 38 39 40 42 43 43
31 29 29 29 28 27 30 30 31 32 33 34 35 34 34 35 35 36 36 37 38 38 39 40 41 41 43 43 43 42 43 43 41 41 42 42 42 44 44 45 44 45 46
35 33 33 32 30 31 32 33 34 35 36 37 38 38 38 39 40 41 42 43 43 43 44 44 45 45 46 47 48 47 46 46 45 46 46 47 47 49 50 52 52 50 46
35 33 32 32 32 33 33 34 35 37 38 39 40 41 42 43 43 44 45 46 47 47 47 47 47 48 48 48 49 49 49 49 51 51 51 53 52 54 55 54 56 57 52
35 32 30 32 32 34 34 35 36 38 39 40 42 44 44 45 45 45 47 48 48 49 49 49 49 49 49 49 49 49 49 51 52 54 56 57 58 59 62 63 61 60 56
33 33 31 31 32 35 36 37 38 40 41 42 42 42 42 42 43 44 45 46 47 48 48 48 48 48 49 50 52 53 55 58 60 62 63 65 65 65 65 65 65 62 60
33 33 34 33 33 35 38 40 41 42 43 43 43 43 44 45 47 48 48 49 50 51 53 54 54 54 55 56 57 58 59 61 62 64 65 64 62 60 60 59 58 54 52
36 36 35 35 37 39 41 42 43 44 44 43 44 45 47 48 51 52 53 54 53 53 53 55 55 57 57 57 57 57 56 56 56 56 57 57 57 57 57 56 55 54 54
39 38 38 38 40 42 44 45 45 46 46 46 48 49 50 53 55 56 55 53 50 48 48 50 50 52 54 56 57 58 60 62 63 64 65 65 65 64 63 62 62 62 62
41 42 42 43 44 46 47 48 48 49 49 49 50 52 54 54 54 51 49 49 51 51 51 51 55 57 58 59 61 63 64 65 67 67 65 65 64 64 64 64 63 63 63
46 47 46 47 49 50 50 51 51 51 51 53 54 54 53 51 50 50 51 53 54 56 55 58 59 61 62 64 66 67 67 69 70 71 71 70 69 68 68 66 65 66 66
50 50 50 51 53 53 53 53 53 54 54 54 54 51 50 52 52 54 55 57 59 61 62 62 64 67 67 69 71 72 73 75 77 79 80 80 80 77 74 70 66 66 65
53 54 54 55 55 55 55 56 56 56 54 52 51 53 54 56 57 58 61 63 65 67 69 70 72 73 75 76 77 79 80 81 82 83 83 81 78 71 66 64 62 61 60
56 56 56 57 56 57 57 59 59 56 53 53 56 58 59 60 61 64 66 69 72 75 77 78 78 80 80 82 83 84 87 89 89 86 81 75 68 61 58 57 56 56 54
58 59 59 59 59 61 62 60 57 54 55 58 61 62 63 66 68 71 73 76 78 81 83 84 85 86 87 88 91 94 96 95 88 80 74 65 58 54 52 52 52 53 55
60 61 61 63 63 62 61 59 58 57 59 62 63 65 68 71 73 76 80 81 83 86 88 90 91 93 94 97 100 100 94 86 78 73 64 56 52 51 51 51 53 53 51
63 64 64 64 64 62 61 60 61 61 64 65 67 69 72 75 77 79 82 85 89 92 94 97 97 99 102 102 94 86 82 75 68 60 55 50 49 50 50 50 50 48 46
65 65 65 63 62 61 61 63 65 66 67 70 73 76 79 81 83 86 89 91 94 98 102 104 106 102 92 86 83 79 71 63 55 50 48 47 49 50 50 47 44 44 45
65 63 62 63 62 63 65 66 67 69 71 75 78 80 82 85 90 95 97 99 101 103 107 105 97 87 79 74 72 64 57 50 46 45 45 47 49 48 46 42 41 42 43
65 65 64 65 66 66 67 69 72 73 75 76 80 84 89 91 96 100 105 107 107 104 93 88 81 73 66 61 56 50 46 44 42 43 47 45 43 41 41 40 41 41 40
66 66 67 68 68 67 69 70 73 77 79 83 87 91 95 100 103 106 106 101 96 85 78 73 67 58 52 47 46 44 43 41 41 42 41 40 37 38 39 38 37 38 39
Wind_Direction
330 335 337 346 1 334 303 301 304 313 315 307 308 305 306 302 300 297 297 294 290 289 286 280 277 278 280 284 286 282 282 282 283 285 287 289 290 289 286 282 280 281 282
327 334 338 344 348 338 329 321 316 309 306 301 303 300 299 299 298 296 291 276 270 272 282 284 282 278 279 282 285 283 280 282 286 287 289 289 290 288 286 286 284 282 278
317 325 331 333 334 331 318 312 306 301 300 297 298 294 292 292 291 289 283 277 275 272 273 278 274 273 277 281 284 283 281 283 285 287 291 294 293 292 291 290 286 283 278
303 309 312 314 311 307 306 303 298 298 296 293 293 291 289 286 282 278 276 273 274 275 272 269 270 269 272 276 279 282 280 280 280 280 286 290 293 295 294 291 287 285 281
289 295 297 296 298 301 304 304 305 304 301 299 299 297 295 294 288 280 277 276 276 277 277 275 272 272 274 275 276 279 279 279 279 278 281 285 290 295 296 291 286 282 280
279 284 289 293 293 296 297 297 299 298 297 296 295 294 292 290 287 285 284 283 282 282 280 278 273 272 273 275 277 277 277 277 278 277 276 281 286 290 294 296 288 282 279
273 275 282 289 290 293 295 295 295 295 295 295 295 293 292 290 289 288 288 287 287 288 287 284 282 280 279 279 280 278 277 275 274 276 275 278 281 283 288 289 290 283 276
276 274 279 284 289 291 293 294 295 295 295 295 294 294 293 291 290 289 287 286 286 286 286 285 284 282 281 279 278 277 275 274 272 275 276 275 276 279 283 286 288 286 280
279 273 275 280 286 290 292 295 297 297 296 295 294 293 291 290 290 289 289 288 288 288 287 285 285 284 283 281 280 278 275 273 273 274 275 276 277 279 281 281 283 284 281
277 271 270 276 284 290 293 294 295 296 297 297 296 294 292 291 288 287 287 287 287 287 285 284 284 284 283 282 280 278 277 276 275 275 276 277 278 279 279 279 278 278 276
275 273 273 277 282 287 291 295 297 299 300 299 296 294 292 291 290 289 288 288 288 287 286 285 284 284 283 281 280 280 280 280 280 279 279 279 279 278 277 275 275 274 272
275 275 279 283 287 290 293 295 298 299 299 297 294 292 291 290 289 289 289 288 288 286 286 285 285 284 283 282 280 279 278 278 278 278 278 278 279 280 278 276 274 268 263
277 280 283 287 290 291 294 296 297 297 296 293 292 291 290 289 288 288 287 286 286 286 286 285 285 285 285 285 285 284 284 282 282 281 280 279 279 279 277 277 273 269 267
282 283 285 288 289 291 292 294 295 295 293 292 291 290 289 288 287 288 288 287 287 287 287 287 286 285 285 285 285 285 285 284 284 283 282 281 280 279 278 277 275 273 272
284 283 285 287 289 290 291 294 294 292 291 290 290 290 289 287 286 286 286 286 285 284 284 285 285 285 285 286 285 285 285 285 285 285 286 285 284 282 280 278 275 273 271
281 283 286 289 291 291 292 293 292 291 291 291 290 289 287 286 286 286 286 287 287 287 285 287 288 289 288 287 286 287 287 288 288 288 288 289 288 286 282 278 275 272 271
284 286 288 289 290 291 292 291 290 290 290 290 289 287 286 287 288 288 287 286 286 286 284 284 285 287 287 288 288 286 287 288 289 290 291 290 289 286 282 279 274 272 271
285 286 288 289 290 291 290 289 290 290 290 289 287 287 287 289 288 288 287 287 288 288 287 287 288 290 290 291 291 290 290 289 289 290 290 289 286 283 279 275 273 271 269
286 288 289 289 288 288 289 289 288 288 287 287 288 289 289 288 287 287 288 290 290 290 291 291 292 293 293 292 291 291 290 290 291 290 288 285 285 281 276 273 271 269 265
289 288 288 287 288 288 287 286 285 285 287 288 288 288 288 288 290 290 291 291 292 293 294 295 295 295 293 292 291 291 290 290 289 286 283 284 280 275 273 271 267 267 266
286 287 287 288 287 285 285 285 284 286 288 288 289 289 289 289 290 291 292 293 294 295 295 295 295 293 293 291 290 288 287 284 282 281 282 278 274 271 269 269 268 270 272
287 287 286 285 285 286 285 287 288 289 290 289 288 288 288 289 290 291 292 294 295 296 295 293 293 292 291 290 286 282 279 276 276 277 275 272 270 268 266 267 270 270 269
287 286 287 286 286 288 289 290 290 290 289 289 289 289 290 291 292 292 293 294 294 294 294 294 293 293 290 284 278 275 273 272 272 271 266 266 266 265 268 269 268 268 269
286 286 286 288 289 289 290 290 289 288 288 288 289 290 290 292 293 293 294 295 295 295 296 295 294 291 283 276 272 269 267 264 260 259 260 261 264 267 269 268 267 268 267
288 289 289 288 288 288 287 288 289 289 289 289 290 291 292 294 295 295 298 298 299 299 296 293 291 285 277 271 265 260 255 251 251 253 257 260 262 265 266 268 269 266 264
288 288 289 291 292 291 291 290 289 289 291 292 296 297 298 299 300 301 301 300 300 298 294 290 287 283 273 262 253 246 243 243 246 251 256 258 258 261 265 268 267 266 265